Regional Weather Roundup
Issued by NWS

Current Version | Previous Version | Text Only | Print | Product List | Glossary On
Versions: 1 2 3 4 5 6 7 8 9 10 11 12 13 14 15 16 17 18 19 20 21 22 23 24 25 26 27 28 29 30 31 32 33 34 35 36 37 38 39 40 41 42 43 44 45 46 47 48 49 50
000
ASUS43 KDMX 240406
RWRIA

WEATHER ROUNDUP FOR IOWA
NATIONAL WEATHER SERVICE DES MOINES IA
1100 PM CDT TUE MAY 23 2017

NOTE: "FAIR" INDICATES FEW OR NO CLOUDS BELOW 12,000 FEET WITH NO
SIGNIFICANT WEATHER AND/OR OBSTRUCTIONS TO VISIBILITY.

* - THESE STATIONS ARE NOT NWS STATIONS...THUS NOT UNDER NWS
QUALITY CONTROL.  THEY ALSO DO NOT REPORT WEATHER SUCH
AS PRECIPITATION OR FOG.

IAZ001>003-012>014-020>022-031>034-043>046-240500-
   NORTHWEST IOWA

CITY           SKY/WX    TMP DP  RH WIND       PRES   REMARKS
CARROLL *      CLOUDY    52  50  93 N13       29.80S
CHEROKEE *     CLOUDY    48  48  99 N3        29.83F
DENISON *      CLOUDY    48  46  93 CALM      29.83S
LE MARS *      CLOUDY    52  48  87 N9G16     29.87R
ORANGE CITY *  PTCLDY    52  48  87 N8        29.86R
SHELDON *      CLOUDY    48  46  93 N8          N/A
SIOUX CITY     CLOUDY    51  48  89 N10       29.86S
SPENCER        CLOUDY    51  47  86 N10       29.83R
STORM LAKE *   CLOUDY    50  48  93 N7        29.82S
$$

IAZ055>058-069>071-079>083-090>094-240500-
   SOUTHWEST IOWA

CITY           SKY/WX    TMP DP  RH WIND       PRES   REMARKS
ATLANTIC *     CLOUDY    48  46  93 NW9       29.80S
AUDUBON *      MOCLDY    48  46  93 NW7       29.80S
CLARINDA *     CLEAR     52  46  82 NW10      29.82S
COUNCIL BLFS * CLOUDY    48  48 100 NW6       29.82F
CRESTON *      PTCLDY    48  46  93 NW8       29.78F
HARLAN  *      MOCLDY    50  48  93 NW8       29.84S
LAMONI         CLEAR     47  44  90 W5        29.76F
RED OAK *      CLOUDY    52  48  87 NW9       29.81S
SHENANDOAH *   MOCLDY    52  46  82 NW6       29.82S
$$

IAZ047>049-059>061-072>074-084-240500-
   CENTRAL IOWA

CITY           SKY/WX    TMP DP  RH WIND       PRES   REMARKS
AMES           PTCLDY    51  48  89 NW13      29.75F
ANKENY *       CLOUDY    52  46  82 NW8       29.76S
BOONE *        CLOUDY    50  50 100 N10       29.75F
CHARITON *     CLEAR     48  46  93 W7        29.74F
DES MOINES     PTCLDY    51  48  89 NW6       29.75S
GRINNELL*      CLEAR     47  45  92 NW6       29.74S
KNOXVILLE *    CLEAR     48  45  87 NW7       29.72F
MARSHALLTOWN   MOCLDY    50  48  93 NW7       29.72F
NEWTON *       CLEAR     50  46  87 NW5       29.73S
PELLA *        PTCLDY    50  46  87 NW7       29.74S
PERRY *        CLOUDY    51  49  93 NW6       29.77S
$$

IAZ004>006-015-016-023>025-035-036-240500-
   NORTH CENTRAL IOWA

CITY           SKY/WX    TMP DP  RH WIND       PRES   REMARKS
ALGONA *       CLOUDY    52  50  93 N10       29.80S
CLARION *      CLOUDY    52  52 100 N13       29.77S
ESTHERVILLE    CLOUDY    50  49  96 N9        29.81F
FORT DODGE *   CLOUDY    50  46  87 N7        29.79S
MASON CITY     CLOUDY    51  48  89 N14       29.77F
FOREST CITY *  LGT RAIN  50  45  81 N9        29.77F
WEBSTER CITY * LGT RAIN  50  50 100 N10G16    29.75S
IOWA FALLS *   LGT RAIN  52  49  92 N10       29.75F
$$

IAZ007>011-017>019-026>030-037>042-050>054-066-240500-
   NORTHEAST IOWA

CITY           SKY/WX    TMP DP  RH WIND       PRES   REMARKS
CEDAR RAPIDS   PTCLDY    50  49  96 N5        29.70F
CHARLES CITY * CLOUDY    52  52 100 N10       29.74F
CLINTON *      MOCLDY    53  52  96 CALM      29.69F
DECORAH *      CLOUDY    52  50  93 NE8       29.72S
DUBUQUE        CLOUDY    52  49  89 N7        29.69F
MONTICELLO *   CLOUDY    54  48  82 W3        29.70S
OELWEIN *      MOCLDY    52  52 100 N8        29.72S
WATERLOO       CLOUDY    52  50  93 NW6       29.72S
$$

IAZ064-065-067-068-078-240500-
   EAST CENTRAL IOWA

CITY           SKY/WX    TMP DP  RH WIND       PRES   REMARKS
DAVENPORT      MOCLDY    53  50  89 NW5       29.69F
IOWA CITY      MOCLDY    52  48  86 CALM      29.72F
MT. PLEASANT * CLOUDY    53  46  76 NW3       29.71F
MUSCATINE *    CLOUDY    52  48  87 W6        29.70F
QUAD CITIES    PTCLDY    53  48  83 W5        29.69F
$$

IAZ062-063-075>077-085>089-095>099-240500-
   SOUTHEAST IOWA

CITY           SKY/WX    TMP DP  RH WIND       PRES   REMARKS
BURLINGTON     PTCLDY    53  48  83 NW5       29.70F
FAIRFIELD *    MOCLDY    52  45  76 NW7       29.71F
FORT MADISON * PTCLDY    52  48  87 NW5       29.71F
KEOKUK *       PTCLDY    52  48  87 W5        29.70F
OSKALOOSA *      N/A     49  45  84 NW6       29.73S
CENTERVILLE *    N/A     48  48 100 CALM      29.75S
OTTUMWA        PTCLDY    48  46  93 W8        29.72F
WASHINGTON *   MOCLDY    52  48  87 NW5       29.72F
$$

ABBREVIATIONS USED IN REMARKS
   TC - TEMPERATURES IN CELSIUS
  WCI - WIND CHILL INDEX
   HX - HEAT INDEX
  VSB - VISIBILITY
$$




USA.gov is the U.S. government's official web portal to all federal, state and local government web resources and services.